Regional Weather Roundup
Issued by NWS Charleston, WV

Home | Current Version | Previous Version | Text Only | Print | Product List | Glossary On
Versions: 1 2 3 4 5 6 7 8 9 10 11 12 13 14 15 16 17 18 19 20 21 22 23 24 25 26 27 28 29 30 31 32 33 34 35 36 37 38 39 40 41 42 43 44 45 46 47 48 49 50
000
ASUS41 KRLX 270210
RWRRLX
West Virginia Regional Weather Roundup
National Weather Service Charleston WV
1000 PM EDT THU MAR 26 2015

Note: "fair" indicates few or no clouds below 12,000 feet with no
significant weather and/or obstructions to visibility.

WVZ003-270300-
Northern Panhandle of West Virginia

CITY           SKY/WX    TMP DP  RH WIND       PRES   REMARKS
WHEELING       CLOUDY    39  35  86 NW15      29.86S
$$

WVZ009-270300-
Northwest West Virginia

CITY           SKY/WX    TMP DP  RH WIND       PRES   REMARKS
PARKERSBURG    CLOUDY    44  40  85 W7        29.95R
$$

WVZ006-270300-
Western West Virginia

CITY           SKY/WX    TMP DP  RH WIND       PRES   REMARKS
HUNTINGTON     LGT RAIN  44  42  93 VRB3      29.94R
$$

WVZ015-270300-
West Central West Virginia

CITY           SKY/WX    TMP DP  RH WIND       PRES   REMARKS
CHARLESTON     LGT RAIN  44  41  89 VRB3      29.89F
$$

WVZ022-031-270300-
North Central West Virginia

CITY           SKY/WX    TMP DP  RH WIND       PRES   REMARKS
CLARKSBURG     CLOUDY    43  40  89 CALM      29.86S
MORGANTOWN     LGT RAIN  43  38  82 CALM      29.87R
$$

WVZ025-035-042-045-270300-
Southern West Virginia

CITY           SKY/WX    TMP DP  RH WIND       PRES   REMARKS
BECKLEY        LGT RAIN  42  39  89 N10       29.82S
LOGAN          LGT RAIN  43  41  93 NW9       29.86R
BLUEFIELD      LGT RAIN  49  44  83 VRB6G17   29.81R
LEWISBURG      CLOUDY    49  43  78 NW8       29.78R
$$

WVZ047-270300-
Northern Mountains of West Virginia

CITY           SKY/WX    TMP DP  RH WIND       PRES   REMARKS
ELKINS         LGT RAIN  42  39  89 NW7       29.83S
$$

WVZ052-270300-
Eastern Panhandle of West Virginia

CITY           SKY/WX    TMP DP  RH WIND       PRES   REMARKS
MARTINSBURG    CLOUDY    51  41  68 N15G22    29.78R
PETERSBURG     MOCLDY    51  38  61 NW9       29.81R
$$


USA.gov is the U.S. government's official web portal to all federal, state and local government web resources and services.